Regional Weather Roundup
Issued by NWS

Home | Current Version | Previous Version | Text Only | Print | Product List | Glossary On
Versions: 1 2 3 4 5 6 7 8 9 10 11 12 13 14 15 16 17 18 19 20 21 22 23 24 25 26 27 28 29 30 31 32 33 34 35 36 37 38 39 40 41 42 43 44 45 46 47 48 49 50
000
ASUS42 KFFC 240710
RWRGA
WEATHER ROUNDUP FOR GEORGIA
NATIONAL WEATHER SERVICE PEACHTREE CITY GA
300 AM EDT SAT JUN 24 2017

NOTE: "FAIR" INDICATES FEW OR NO CLOUDS BELOW 12,000 FEET WITH NO
SIGNIFICANT WEATHER AND/OR OBSTRUCTIONS TO VISIBILITY.

* = USE WITH CAUTION. THE STATIONS MARKED WITH AN ASTERISK MAY NOT
REPORT WEATHER SUCH AS PRECIPITATION, FOG, OR THUNDER AND ARE NOT
QUALITY CONTROLLED BY NWS.

THE REMARK "TC" DENOTES TEMPERATURE READING IN DEGREES CELSIUS.

GAZ001>058-240800-
NORTH GEORGIA

CITY           SKY/WX    TMP DP  RH WIND       PRES   REMARKS
ATLANTA        CLOUDY    72  71  97 SW8       29.98R
ATHENS         MOCLDY    73  72  96 SW3       29.96F
CHAMBLEE       CLOUDY    72  70  93 SW7       29.97F
PEACHTREE CITY PTCLDY    72  71  97 VRB3      29.99S
ROME           CLOUDY    74  74 100 SW3       29.94S
WEST ATLANTA   CLOUDY    73  72  96 SW7       29.97S
GAINESVILLE    CLOUDY    73  72  96 W8        29.99S
CARTERSVILLE   CLOUDY    72  72 100 CALM      29.96S


CITY           SKY/WX    TMP DP  RH WIND       PRES   REMARKS
DALTON*        CLOUDY    72  72 100 CALM      29.93F
MARIETTA       MOCLDY    72  70  94 SW5       29.97S
CANTON*        CLOUDY    73  73 100 SW5       29.98F
$$

GAZ059>098-102>109-240800-
CENTRAL GEORGIA

CITY           SKY/WX    TMP DP  RH WIND       PRES   REMARKS
AUGUSTA-BUSH   CLEAR     80  74  81 S6        29.94S
AUGUSTA-DANIEL CLEAR     81  72  74 SW7       29.95F
COLUMBUS       CLEAR     74  72  93 W5        29.98F
MACON          PTCLDY    77  71  82 W5        29.98S
ROBINS AFB     CLEAR     78  71  80 SW6       29.97F


CITY           SKY/WX    TMP DP  RH WIND       PRES   REMARKS
LAGRANGE*      CLOUDY    74  74  98 SW3       29.99F
SYLVANIA*      CLEAR     77  76  97 SW3       29.97F
MILLEDGEVILLE* CLEAR     75  73  94 CALM      29.97S
$$

GAZ099>101-110>166-240800-
SOUTH GEORGIA

CITY           SKY/WX    TMP DP  RH WIND       PRES   REMARKS
SAVANNAH       CLEAR     79  73  82 S9        29.98F
VALDOSTA       CLEAR     72  71  97 CALM      30.01R FOG
ALMA           CLEAR     76  73  91 S5        29.99F
ST SIMONS      CLEAR     81  76  84 VRB7      30.00F
FT STEWART     CLEAR     76  72  88 S5        29.97F
ALBANY         CLEAR     75  71  87 W5        30.02S
HUNTER AFB     CLEAR     79  74  86 CALM      29.96F
MOODY AFB      CLEAR     76  74  92 SW6       29.99F
BRUNSWICK      CLEAR     79  77  94 S8        30.01F


CITY           SKY/WX    TMP DP  RH WIND       PRES   REMARKS
BAINBRIDGE*    CLEAR     81  79  94 W5        30.02R
MOULTRIE*      CLEAR     77  73  88 SW3       30.01S
VIDALIA*       CLEAR     79  73  83 SW5       29.99S
WAYCROSS*      CLEAR     77  77 100 S3        30.00S
DOUGLAS*       CLEAR     75  73  94 SW5       30.00F
$$



USA.gov is the U.S. government's official web portal to all federal, state and local government web resources and services.